RH
36 30 34 35 33 61 86 88 88 91 97 96 85 94 74 71 66 74 66 82 70 62 52 48 63 64 69 65 60 58 56 62 89 98 77 59 54 49 46 57 69 58 53 34
32 31 34 35 35 39 89 96 98 97 99 84 73 68 67 69 59 59 56 58 82 78 75 72 71 71 66 70 58 57 53 72 96 100 86 72 71 61 52 51 61 68 59 40
29 33 34 35 34 26 84 87 94 98 100 98 83 76 71 68 67 64 58 53 48 62 63 60 73 75 69 69 61 62 55 60 67 59 66 62 77 67 63 59 73 54 51 43
29 33 35 34 34 33 76 74 78 88 90 83 73 76 76 68 66 59 63 59 60 51 62 65 69 68 73 69 74 62 55 87 77 56 60 68 66 64 67 86 64 65 48 41
30 34 35 35 34 38 66 71 81 85 72 70 74 73 74 73 76 74 67 65 66 54 60 64 65 66 69 73 71 73 61 90 70 76 62 68 72 62 63 64 61 62 61 62
32 35 37 35 35 38 40 53 71 66 65 61 69 64 62 70 74 72 79 70 61 73 83 86 78 66 57 55 69 82 78 77 80 73 63 60 63 50 52 56 60 60 66 45
33 36 37 36 36 36 40 54 69 56 56 54 56 56 61 71 75 76 73 70 62 82 81 73 61 58 56 55 60 57 66 67 72 77 62 63 44 40 44 48 46 44 46 46
35 36 37 36 34 35 38 49 54 52 54 54 59 62 65 69 75 79 74 66 78 80 71 56 60 61 59 61 59 54 49 55 75 73 61 47 54 52 50 51 55 46 52 49
36 36 38 36 33 32 40 39 34 47 51 66 81 59 67 82 72 72 64 57 69 74 64 59 68 69 62 71 69 59 54 50 54 65 75 62 42 42 50 48 59 59 60 61
36 37 39 38 37 36 39 41 34 45 69 90 72 58 58 65 62 66 60 66 71 68 69 72 71 70 60 67 64 69 67 69 74 70 69 50 51 51 54 65 69 62 60 61
35 38 37 39 41 44 40 45 46 42 80 91 73 69 71 61 61 68 63 74 72 72 78 72 73 65 65 64 61 64 64 66 66 66 69 69 52 55 61 65 51 49 50 55
34 40 38 41 45 41 40 45 50 46 55 87 76 74 66 57 61 62 83 83 86 86 78 72 73 80 74 71 61 58 72 64 63 61 61 61 52 64 64 64 66 62 64 66
36 40 40 45 44 42 39 45 44 42 76 77 78 78 72 68 69 60 58 74 82 82 83 79 71 75 74 69 72 74 66 63 64 55 62 56 52 70 60 67 77 78 84 92
40 39 46 46 41 38 38 42 51 55 61 71 80 79 75 77 77 72 61 67 75 68 60 66 74 72 82 82 76 66 64 49 56 48 45 58 62 62 72 85 86 86 97 100
42 44 46 47 45 47 47 48 50 51 50 72 82 78 82 88 80 78 72 62 60 61 67 69 70 75 66 66 63 58 54 70 78 66 62 74 76 89 98 93 90 95 99 99
45 44 51 50 49 48 49 51 51 48 49 63 79 81 88 89 80 73 69 64 65 67 73 76 82 80 79 59 48 55 64 76 90 86 88 98 98 99 99 97 98 94 97 100
44 50 54 55 57 56 54 50 49 52 51 56 89 85 78 91 91 87 83 80 78 79 88 81 75 73 82 69 57 59 75 89 99 100 99 99 99 99 98 98 99 99 98 100
50 55 55 56 55 54 57 48 48 50 39 32 85 76 81 79 94 90 93 93 82 86 88 89 79 83 81 73 62 64 80 94 100 100 100 100 99 100 99 97 98 98 98 98
53 56 54 57 53 55 55 50 46 39 35 43 63 70 72 74 87 89 97 89 78 86 75 76 81 77 85 62 64 72 83 93 99 97 91 81 90 100 100 100 99 99 99 99
56 50 60 57 61 50 49 48 50 45 38 39 85 90 78 80 87 84 87 98 83 89 76 91 80 74 68 58 62 82 91 82 86 100 98 83 74 88 100 98 100 100 99 99
44 49 66 69 58 50 45 49 58 56 68 73 83 83 79 86 82 81 92 92 87 91 88 82 84 76 65 52 51 52 53 57 62 74 79 88 92 88 90 79 87 97 99 100
40 49 62 59 54 40 61 83 72 62 70 98 83 94 82 93 92 82 88 88 89 93 96 90 96 75 54 39 42 53 62 56 50 48 48 51 63 80 85 88 84 90 94 98
50 40 43 35 41 52 41 52 70 79 96 97 84 84 94 95 94 96 80 92 83 95 93 83 75 63 40 39 36 35 36 36 36 39 50 55 56 59 78 92 96 98 95 96
35 36 60 67 54 51 56 57 75 74 78 69 68 95 94 100 91 85 86 69 91 91 89 86 74 52 40 40 39 40 39 40 41 50 54 57 62 63 63 66 88 99 98 96
27 25 58 72 86 81 74 74 79 73 65 66 84 93 88 85 76 72 69 70 81 77 84 76 51 41 41 40 42 42 43 43 45 52 50 44 42 55 58 57 65 89 100 99
34 43 79 91 74 100 97 74 72 61 68 69 65 88 87 82 76 74 77 85 88 75 82 49 46 44 39 41 44 42 44 44 52 52 37 30 30 34 44 53 57 69 98 100
33 59 46 48 40 49 58 54 56 59 60 78 80 70 64 79 85 84 71 84 75 75 60 59 55 42 47 50 48 44 49 52 50 33 48 69 63 39 32 36 56 60 79 100
Wind_Speed
10 9 5 4 4 5 13 5 2 4 6 2 1 1 2 2 4 7 4 2 2 2 3 4 2 2 2 4 7 5 1 5 5 3 3 2 1 8 12 6 5 1 3 3
9 6 3 2 2 8 12 5 4 4 4 1 1 1 2 2 3 2 5 4 2 3 2 3 1 1 2 3 3 2 4 4 5 3 1 2 6 6 6 5 2 6 6 2
8 5 2 2 2 8 13 6 3 2 3 1 1 1 1 2 1 3 2 3 6 4 2 1 5 3 2 4 1 3 2 3 3 5 3 6 8 13 10 9 7 14 14 15
7 6 2 2 3 10 13 6 3 5 4 5 3 1 1 2 2 2 4 4 1 2 3 3 4 4 6 4 2 2 2 2 2 3 4 2 4 9 15 12 16 14 15 18
8 6 2 2 4 11 12 6 5 4 4 3 4 0 1 2 2 4 4 6 6 3 3 3 4 7 3 3 2 2 1 3 1 2 1 2 4 8 8 13 17 17 18 21
10 5 3 3 6 12 7 9 10 6 2 4 3 2 2 2 0 4 5 1 5 9 4 2 2 2 3 4 6 3 2 4 2 2 2 2 6 6 10 7 7 8 13 15
10 6 5 4 5 8 10 12 15 5 4 3 2 2 2 3 3 2 4 5 1 2 1 8 8 9 9 5 6 3 5 4 1 1 1 3 3 2 2 6 6 8 12 12
11 8 7 7 6 7 9 15 9 6 5 6 4 5 3 3 4 3 4 7 5 2 3 2 4 3 4 4 4 2 2 3 2 2 4 3 3 2 1 1 5 4 8 11
12 10 9 10 9 9 9 14 11 7 12 3 3 3 3 3 2 1 3 5 6 3 1 0 1 2 2 3 4 2 3 4 1 2 2 1 3 3 2 2 6 16 16 17
14 11 11 10 10 9 8 12 15 10 11 4 3 2 4 3 2 1 3 7 4 4 1 2 2 2 1 3 3 3 3 2 4 4 3 2 8 7 1 4 4 16 16 19
15 13 13 11 9 6 8 15 15 11 10 8 6 6 6 4 1 2 2 2 1 1 2 2 3 3 2 1 1 1 3 2 2 2 4 4 16 2 5 6 11 16 19 19
18 16 15 13 10 10 15 20 16 28 15 15 18 15 12 11 7 4 3 2 2 3 1 1 1 1 1 1 3 1 2 3 2 2 2 4 10 2 4 12 16 18 22 23
21 20 18 16 14 17 21 30 28 39 29 17 8 10 11 8 5 3 2 2 2 0 3 3 2 1 2 1 2 1 2 7 1 5 3 7 18 7 10 17 16 18 17 22
24 23 21 19 22 24 27 38 14 14 14 7 4 7 9 8 6 2 4 7 5 6 5 1 1 2 2 1 1 2 3 4 5 5 6 19 5 16 23 26 19 18 21 22
28 27 24 23 28 31 20 16 16 11 5 7 8 11 8 7 7 5 6 6 3 3 2 2 1 1 3 3 3 3 2 2 1 4 13 12 22 25 27 24 21 23 26 31
30 29 26 26 28 23 21 7 10 21 25 9 4 6 7 8 8 8 9 7 4 4 2 3 2 1 1 2 1 4 5 5 7 7 13 20 23 23 18 21 26 24 29 29
31 29 28 28 26 22 4 7 20 14 9 6 6 4 3 4 3 3 7 6 4 3 2 2 2 1 2 1 3 8 5 7 10 9 9 12 9 17 21 21 22 26 25 27
30 28 26 22 14 12 15 21 18 15 6 5 4 2 3 1 1 1 3 2 2 3 2 2 1 0 2 3 3 3 8 10 9 7 11 14 18 17 18 17 18 21 22 20
30 28 27 22 15 6 13 16 12 8 4 6 4 3 3 2 2 2 2 1 1 1 1 2 1 2 3 1 3 7 6 7 13 14 14 15 16 17 18 19 17 19 20 18
38 33 7 7 10 25 18 5 3 3 5 5 5 3 3 3 2 2 2 1 1 1 2 4 2 3 8 7 4 6 10 11 12 13 13 19 22 21 21 21 20 18 19 19
29 7 4 24 21 6 3 4 4 3 4 4 4 3 3 2 2 2 1 2 1 0 2 2 1 3 4 3 4 7 9 13 16 16 19 19 19 21 23 25 23 21 20 19
13 14 23 12 4 3 4 2 1 2 3 3 4 4 4 3 2 1 2 1 2 2 5 2 2 2 5 2 7 11 14 17 18 18 21 21 22 21 23 24 25 24 23 21
26 7 5 4 3 4 4 3 1 2 5 6 6 4 3 3 2 3 1 2 2 8 3 3 2 3 2 6 10 14 17 21 23 22 19 21 23 24 24 26 25 26 25 22
5 5 6 2 1 2 2 2 4 6 10 12 10 6 3 2 2 2 2 2 3 3 4 3 3 2 5 9 12 15 19 22 22 21 22 24 24 25 25 25 23 26 26 25
3 5 4 3 5 6 10 15 11 10 14 10 9 7 3 2 2 2 1 2 4 4 2 2 2 7 11 16 18 20 23 24 22 20 22 24 26 28 29 26 25 24 25 25
4 6 7 8 7 3 6 10 12 14 12 9 6 4 3 2 1 4 5 3 5 2 2 3 7 13 19 22 23 24 24 25 22 20 21 23 24 26 28 28 28 23 23 24
4 6 12 9 10 13 12 13 11 15 8 2 4 3 2 4 2 3 3 4 1 4 3 8 18 23 23 23 23 23 24 21 18 17 17 20 24 28 29 29 29 22 20 21
Wind_Direction
295 309 320 346 348 175 162 179 129 142 157 209 82 209 195 274 153 194 163 73 111 148 125 127 83 72 38 158 154 143 76 120 135 96 23 37 261 228 219 227 187 225 309 262
284 296 301 338 305 194 171 156 112 161 165 145 197 244 249 248 164 140 168 142 193 202 140 110 147 100 33 175 160 123 168 129 118 120 30 270 226 198 218 232 359 211 256 216
267 273 273 283 254 202 178 161 132 181 197 232 216 327 71 133 45 82 82 91 147 166 137 227 148 124 80 164 119 96 154 136 250 192 93 138 198 213 206 209 242 247 234 256
250 251 253 262 222 189 177 178 148 168 173 204 196 236 306 127 88 20 54 104 56 179 131 131 126 114 116 68 49 46 9 106 65 70 90 147 204 210 205 205 232 246 260 265
235 223 239 234 198 184 188 164 154 153 117 137 162 316 65 108 62 356 56 89 74 125 109 347 164 144 175 160 112 74 32 128 146 125 66 224 250 235 233 238 247 258 267 280
219 196 210 199 186 189 189 186 161 155 98 147 181 127 100 77 301 64 41 110 112 86 81 31 4 352 127 153 158 143 184 147 165 162 334 260 244 248 226 231 246 255 267 284
205 175 186 191 186 200 211 184 158 157 114 127 112 121 87 82 59 65 11 37 35 54 83 118 80 84 100 98 78 138 148 126 75 140 264 227 73 281 280 255 276 264 272 297
188 171 171 158 153 162 184 176 160 134 112 112 108 85 76 92 68 74 66 30 14 55 150 176 143 130 163 94 64 109 214 144 110 222 223 310 136 134 211 231 99 42 342 332
175 174 158 153 142 129 152 172 162 126 128 94 113 98 66 104 33 111 38 23 30 81 67 139 178 170 104 154 133 82 115 113 203 173 288 303 76 21 350 229 192 9 352 339
169 172 159 151 141 139 145 154 150 130 103 84 129 120 99 95 131 76 23 346 359 31 125 149 170 145 25 178 182 160 171 174 221 214 242 263 10 335 140 242 21 345 346 339
168 169 156 145 141 143 159 153 149 138 103 87 109 104 110 110 78 122 30 190 280 312 157 208 148 175 124 182 77 139 206 207 196 196 223 236 2 92 339 357 331 333 328 326
167 162 153 142 130 127 140 135 135 126 100 112 99 96 90 90 74 123 55 50 59 3 354 111 112 115 177 196 150 124 175 355 338 285 20 94 1 315 89 352 327 325 320 320
164 159 152 140 133 133 137 131 128 114 104 89 82 75 75 81 80 89 135 138 159 132 54 50 80 107 347 157 79 274 111 15 319 320 135 328 321 179 326 333 323 319 316 312
161 158 149 138 134 133 137 132 129 114 111 101 77 88 76 61 52 95 103 122 123 112 87 130 113 114 331 79 88 355 4 2 334 273 298 335 137 325 323 319 313 314 316 315
160 160 148 141 141 142 144 140 131 131 108 124 141 86 65 54 65 82 128 134 138 88 84 36 75 146 174 147 176 147 126 97 295 272 314 294 290 305 313 312 312 314 314 314
164 160 149 145 150 150 140 113 124 127 124 109 117 107 64 76 84 91 99 109 97 100 95 103 117 70 304 176 168 160 178 220 234 263 284 287 290 301 308 306 306 310 312 309
168 158 156 151 149 155 167 156 154 154 129 111 110 102 77 106 114 65 72 79 85 99 108 93 102 214 271 230 197 190 283 295 289 288 284 291 289 300 316 316 312 306 303 311
162 158 159 163 164 136 113 128 142 149 124 102 110 89 121 93 99 103 58 80 84 38 92 105 128 146 316 251 232 268 314 316 305 290 298 289 304 313 317 319 321 322 322 324
154 147 136 125 124 114 130 127 123 112 98 106 84 126 147 133 117 132 97 124 140 116 131 115 159 162 224 204 243 280 297 295 295 307 306 311 308 314 320 322 321 318 323 323
142 133 119 125 128 127 122 105 91 66 53 62 86 118 116 138 154 133 161 28 80 138 85 131 232 250 242 234 274 304 313 312 308 300 308 318 319 321 321 327 325 317 315 313
144 137 104 133 135 125 95 89 58 28 61 52 103 110 124 139 200 127 123 121 57 27 113 266 229 256 205 199 303 312 320 321 317 310 309 310 307 308 314 321 326 320 315 314
154 129 125 125 109 92 86 38 356 48 124 115 123 131 121 133 124 126 149 114 153 244 147 206 247 273 116 5 327 322 318 321 319 316 313 314 311 312 309 313 317 320 315 311
126 118 112 109 63 66 112 150 108 148 165 152 149 119 110 110 98 95 175 184 215 130 203 233 218 153 39 351 334 329 327 322 319 319 320 320 317 315 310 309 312 312 311 312
136 149 84 84 96 85 148 130 125 137 146 135 127 103 105 103 83 117 166 218 177 239 229 220 169 204 331 324 320 314 314 318 317 320 323 327 329 326 319 308 302 305 304 306
121 99 97 87 123 97 115 116 118 128 145 131 110 87 96 102 111 192 276 220 242 237 242 160 218 341 327 323 325 320 321 321 315 314 320 324 326 328 328 326 309 296 298 297
93 87 92 125 104 123 140 139 134 143 142 114 95 98 80 143 189 183 202 210 227 258 211 152 341 331 323 318 318 316 316 314 310 312 317 322 325 322 320 322 323 302 291 291
73 74 136 143 130 148 151 152 154 155 145 116 121 122 165 108 186 225 197 217 233 3 229 287 310 307 309 311 311 310 310 306 304 307 318 329 336 335 327 321 327 315 293 289